Wind_Speed
7 7 7 6 5 3 8 11 10 9 11 12 13 11 10 8 7 6 4 5 6 4 2 1 1 6 7 8 9 11 11 10 11
9 9 10 9 6 4 5 7 10 9 10 13 15 13 10 9 7 3 2 3 1 2 3 4 4 2 6 9 12 12 12 13 14
11 12 13 13 7 4 6 7 6 9 12 14 15 13 11 9 5 2 4 1 6 10 11 13 12 12 12 12 11 12 13 13 14
13 14 16 13 8 4 7 8 8 9 12 16 16 14 12 11 10 5 5 3 12 5 5 8 10 11 10 13 14 12 11 13 13
14 15 16 14 8 7 8 11 11 10 12 17 18 16 13 11 9 6 1 6 3 2 2 12 14 14 14 12 10 12 12 12 15
15 17 15 12 11 10 9 14 14 14 14 17 18 15 13 11 6 5 4 7 6 8 15 13 13 11 9 9 11 13 13 14 13
16 15 13 13 12 10 11 17 16 15 15 18 17 15 10 7 5 4 7 9 11 4 7 6 7 10 9 11 10 11 12 12 12
19 17 16 12 11 12 14 20 20 16 15 16 17 17 13 10 9 8 8 11 13 10 3 4 4 13 11 13 11 11 12 10 10
22 20 17 12 12 12 16 20 20 17 14 13 15 19 15 14 13 13 10 12 17 13 8 2 6 6 10 11 11 11 10 9 9
26 27 20 11 8 9 14 17 18 16 15 13 14 20 18 16 16 15 12 10 19 15 11 10 7 4 4 11 12 11 9 7 5
24 24 17 16 11 12 9 14 17 18 16 16 16 22 19 17 14 15 11 14 18 15 12 12 14 10 5 2 8 9 7 5 4
16 18 19 19 16 16 16 13 13 17 20 19 20 24 22 19 17 15 15 18 23 15 13 15 14 15 8 4 9 9 6 5 4
12 17 15 22 29 21 23 19 22 23 25 25 23 24 22 20 18 16 15 21 15 14 14 16 14 14 6 5 8 7 4 3 2
11 17 19 26 27 25 25 22 26 27 30 27 25 25 20 19 17 15 21 24 20 17 18 17 16 11 4 2 5 4 3 2 2
12 13 18 25 28 25 24 26 30 32 34 32 27 24 22 20 19 17 22 23 19 20 20 19 17 10 8 3 4 3 4 4 5
13 14 17 23 24 23 33 32 36 35 31 30 27 23 24 23 22 24 26 24 24 24 23 22 19 14 12 10 11 9 8 8 8
16 16 16 20 22 24 24 32 32 28 29 28 25 24 22 23 26 27 23 27 25 24 28 24 20 15 11 13 12 12 10 11 11
19 19 20 19 22 22 26 27 35 28 31 33 25 12 11 27 28 26 27 27 28 27 32 29 21 18 14 12 14 15 12 12 13
15 16 18 17 22 25 26 27 29 30 32 36 37 24 19 18 18 32 34 37 34 32 31 27 26 22 21 16 15 14 14 13 14
16 19 21 22 20 24 25 27 30 30 33 40 37 34 25 22 23 26 28 37 37 40 34 32 28 24 21 18 18 17 16 16 16
Wind_Direction
215 204 191 178 147 139 147 156 156 149 144 150 141 147 138 123 94 107 82 116 132 149 118 129 120 114 111 107 109 102 107 104 113
226 202 197 187 168 179 177 175 180 170 155 154 152 159 153 145 117 132 135 78 121 204 220 138 123 104 126 118 111 116 114 107 107
227 212 201 195 186 194 195 188 185 179 165 163 173 169 160 155 150 147 141 66 134 124 120 118 118 116 117 112 110 112 115 114 112
231 223 212 201 191 207 211 200 187 174 167 174 177 176 167 160 187 175 156 112 130 125 213 144 141 140 132 124 126 121 113 114 114
232 226 216 212 220 227 219 205 195 188 182 180 179 181 185 180 163 145 356 168 135 95 166 132 134 130 139 141 134 122 122 114 112
224 211 210 231 233 236 224 204 201 195 180 179 183 188 177 157 148 142 244 158 150 99 128 142 148 152 147 146 134 121 125 119 118
215 214 233 240 237 240 229 200 200 197 186 181 186 192 186 175 179 200 216 195 168 124 123 159 184 158 167 146 142 141 129 125 117
225 224 229 229 239 245 223 195 196 199 195 191 191 187 191 190 213 215 237 201 178 168 188 107 152 153 156 142 143 130 132 120 115
228 229 232 244 263 240 205 192 193 199 202 207 205 185 191 210 218 222 234 211 182 173 186 147 102 123 152 153 141 131 121 125 112
227 225 222 204 228 192 193 188 188 199 201 200 207 193 199 209 214 226 224 225 189 180 167 153 141 113 116 160 154 136 133 131 121
248 203 189 201 193 171 173 184 187 196 207 204 201 205 209 219 222 203 228 211 201 181 167 166 155 151 141 181 179 152 147 143 142
270 241 220 244 207 182 179 198 217 205 208 213 214 212 208 218 222 235 240 231 203 183 183 175 168 154 157 336 168 157 160 163 166
249 239 246 232 207 218 227 249 217 220 213 214 218 209 207 212 221 229 222 203 184 181 191 184 180 173 178 327 190 171 170 183 206
293 232 240 223 232 223 242 241 228 212 207 215 214 212 202 206 214 224 205 200 200 195 188 190 188 193 221 284 178 173 191 233 264
286 239 229 236 233 249 241 233 216 214 211 208 213 210 215 225 220 225 214 214 217 200 193 196 197 217 215 256 250 254 265 276 284
258 262 244 237 242 253 230 217 213 208 211 210 210 201 208 216 218 219 218 212 217 215 213 210 209 221 224 234 262 268 278 282 286
241 258 269 245 240 245 245 231 226 222 216 207 215 190 193 213 209 212 225 214 212 221 212 211 216 233 241 244 244 270 280 283 286
238 244 249 258 243 238 248 228 234 225 225 224 206 187 202 204 214 217 222 223 219 219 218 209 218 223 227 250 247 267 277 280 284
252 250 251 260 250 238 238 241 239 232 225 216 213 213 207 191 211 218 224 224 222 208 216 215 218 221 224 233 244 256 266 274 276
255 250 253 252 254 242 238 240 231 238 237 237 219 225 230 215 214 213 211 203 212 204 215 218 215 218 229 240 251 253 257 266 269
Height
1544 1546 1547 1548 1548 1548 1548 1549 1551 1551 1553 1554 1555 1556 1557 1558 1559 1560 1562 1562 1563 1563 1563 1563 1563 1564 1564 1564 1564 1565 1565 1564 1564
1544 1544 1545 1547 1548 1548 1548 1549 1550 1551 1553 1554 1554 1555 1556 1558 1560 1561 1563 1563 1563 1563 1563 1563 1564 1564 1565 1565 1565 1566 1565 1565 1565
1543 1543 1544 1545 1547 1547 1548 1549 1549 1551 1553 1554 1553 1555 1555 1558 1560 1561 1563 1563 1562 1562 1563 1564 1564 1565 1565 1566 1567 1567 1567 1567 1566
1542 1542 1543 1545 1545 1546 1547 1548 1549 1551 1552 1553 1553 1555 1555 1557 1559 1560 1562 1563 1562 1563 1564 1566 1567 1567 1567 1567 1568 1568 1568 1568 1567
1539 1540 1542 1543 1544 1545 1546 1547 1548 1550 1551 1553 1554 1555 1556 1557 1559 1560 1561 1562 1563 1564 1564 1565 1566 1567 1567 1568 1568 1568 1568 1568 1569
1536 1538 1540 1541 1542 1542 1543 1544 1546 1548 1550 1552 1554 1555 1556 1557 1558 1560 1561 1562 1563 1564 1566 1567 1567 1567 1568 1568 1569 1569 1568 1569 1569
1534 1535 1536 1538 1538 1539 1540 1542 1544 1546 1549 1551 1553 1555 1556 1556 1558 1560 1559 1560 1561 1563 1565 1566 1566 1567 1568 1567 1568 1569 1569 1569 1569
1532 1533 1534 1535 1535 1536 1537 1539 1542 1545 1548 1551 1553 1554 1556 1556 1558 1559 1559 1560 1560 1561 1564 1565 1565 1566 1567 1567 1567 1568 1568 1568 1568
1528 1530 1532 1534 1535 1534 1535 1537 1540 1543 1546 1549 1551 1554 1555 1556 1557 1558 1558 1559 1559 1560 1562 1564 1564 1565 1566 1567 1567 1567 1567 1568 1568
1521 1524 1528 1529 1533 1535 1535 1536 1540 1542 1544 1546 1549 1552 1552 1554 1555 1556 1557 1558 1559 1559 1560 1562 1563 1563 1564 1565 1566 1566 1566 1566 1567
1522 1508 1511 1526 1527 1534 1535 1538 1537 1540 1542 1544 1546 1548 1550 1552 1553 1554 1556 1557 1559 1559 1560 1561 1563 1563 1563 1563 1564 1565 1565 1566 1566
1517 1514 1515 1519 1526 1529 1529 1534 1538 1537 1538 1543 1542 1543 1546 1550 1551 1552 1554 1555 1557 1558 1559 1560 1562 1564 1564 1563 1564 1564 1565 1566 1566
1516 1518 1517 1519 1522 1526 1522 1526 1529 1532 1536 1537 1540 1540 1542 1546 1549 1550 1551 1552 1553 1556 1557 1558 1560 1562 1562 1561 1562 1564 1565 1566 1566
1514 1516 1517 1517 1520 1519 1519 1522 1526 1525 1530 1535 1536 1538 1540 1544 1546 1548 1549 1550 1551 1554 1556 1557 1558 1560 1561 1561 1562 1563 1564 1565 1565
1510 1512 1514 1515 1513 1516 1517 1518 1521 1523 1525 1530 1532 1533 1536 1541 1543 1545 1548 1549 1549 1551 1552 1555 1557 1558 1560 1561 1562 1562 1563 1564 1564
1506 1507 1510 1510 1510 1512 1511 1513 1515 1517 1520 1522 1527 1529 1531 1534 1539 1541 1544 1546 1547 1548 1550 1552 1555 1556 1557 1559 1560 1560 1560 1562 1562
1501 1502 1503 1505 1505 1507 1509 1509 1512 1513 1515 1518 1521 1524 1527 1530 1535 1537 1539 1541 1542 1543 1546 1548 1551 1553 1554 1556 1557 1558 1558 1559 1560
1498 1498 1499 1500 1501 1503 1503 1505 1509 1509 1513 1515 1519 1518 1519 1524 1529 1531 1535 1538 1539 1540 1540 1543 1547 1551 1551 1551 1554 1556 1557 1556 1557
1493 1494 1495 1495 1496 1498 1499 1501 1504 1503 1506 1511 1512 1514 1517 1518 1523 1527 1529 1532 1535 1535 1536 1539 1543 1546 1548 1549 1552 1552 1553 1553 1553
1490 1490 1490 1491 1491 1493 1495 1496 1497 1501 1503 1504 1507 1508 1512 1514 1517 1519 1521 1525 1527 1528 1531 1534 1537 1540 1545 1546 1548 1549 1549 1549 1549